Home   Weather   Lubbock   Past weeks
Flag for USA

Past Weather in Lubbock, Texas, USA — Yesterday and Last 2 Weeks

Now
30 °F

Passing clouds.


Feels Like: 20 °F
Forecast: 62 / 30 °F
Wind: 12 mph from Southwest

Location: Lubbock International Airport

Current Time: Nov 13, 2019 at 4:25:07 am

Latest Report: Nov 13, 2019 at 3:53 am


Visibility: 10 mi

Pressure: 30.10 "Hg (26.62 "Hg at 976m altitude)

Humidity: 56%

Dew Point: 16 °F

Location of LubbockLocation

Past Weather in Lubbock — Graph

°F

Lubbock Temperature Yesterday

Maximum temperature yesterday: 41 °F (at 2:53 pm)
Minimum temperature yesterday: 16 °F (at 6:53 am)
Average temperature yesterday: 29 °F

High & Low Weather Summary for the Past Weeks

 TemperatureHumidityPressure
High80 °F (Nov 10, 3:53 pm)97% (Nov 7, 7:21 pm)30.67 "Hg (Nov 7, 7:21 pm)
Low16 °F (Nov 12, 6:53 am)11% (Nov 1, 1:53 pm)29.75 "Hg (Nov 10, 3:53 pm)
Average44 °F67%30.19 "Hg
* Reported Oct 29 3:53 am — Nov 13 2:53 am, Lubbock. Weather by CustomWeather, © 2019

Note: Actual official high and low records may vary slightly from our data, if they occured in-between our weather recording intervals... More about our weather records

Advertising

Lubbock Weather History for the Previous 24 Hours

Scroll right to see more
 ConditionsComfort  
Time TempWeatherWind HumidityBarometerVisibility
2:53 am
Wed, Nov 13
31 °FPassing clouds.15 mph49%30.11 "Hg10 mi
1:53 am32 °FPassing clouds.14 mph45%30.14 "Hg10 mi
12:53 am32 °FPassing clouds.12 mph45%30.16 "Hg10 mi
11:53 pm
Tue, Nov 12
32 °FPartly cloudy.13 mph43%30.20 "Hg10 mi
10:53 pm33 °FPassing clouds.13 mph41%30.25 "Hg10 mi
9:53 pm33 °FPassing clouds.12 mph41%30.28 "Hg10 mi
8:53 pm33 °FPartly cloudy.8 mph45%30.29 "Hg10 mi
7:53 pm35 °FOvercast.10 mph40%30.32 "Hg10 mi
6:53 pm36 °FMostly cloudy.13 mph38%30.34 "Hg10 mi
5:53 pm37 °FPartly cloudy.13 mph34%30.37 "Hg10 mi
4:53 pm39 °FSunny.14 mph30%30.37 "Hg10 mi
3:53 pm40 °FBroken clouds.13 mph27%30.39 "Hg10 mi
2:53 pm41 °FPassing clouds.9 mph22%30.41 "Hg10 mi
1:53 pm40 °FPassing clouds.12 mph22%30.44 "Hg10 mi
12:53 pm37 °FPassing clouds.3 mph30%30.50 "Hg10 mi
11:53 am34 °FPassing clouds.5 mph32%30.54 "Hg10 mi
10:53 am29 °FPassing clouds.7 mph43%30.58 "Hg10 mi
9:53 am27 °FPassing clouds.6 mph49%30.61 "Hg10 mi
8:53 am22 °FPassing clouds.5 mph62%30.63 "Hg10 mi
7:53 am18 °FPassing clouds.3 mph74%30.64 "Hg10 mi
6:53 am16 °FPassing clouds.3 mph74%30.63 "Hg10 mi
5:53 am17 °FPassing clouds.6 mph70%30.64 "Hg10 mi
4:53 am17 °FClear.7 mph74%30.66 "Hg10 mi
Weather by CustomWeather, © 2019

See weather overview